This is the latest recevied weather packets stored in our database for station/object OK1FET-4. If no packets are shown the sender has not sent any weather packets the latest 10 day(s).
| Time | Temp. | Humidity | Pressure | Rain* | Wind** | Luminosity | Snow |
|---|---|---|---|---|---|---|---|
| 1777388427 | 19.44° C | 30% | 1020.3 hPa | - | - | - | - |
| 1777388126 | 19.44° C | 30% | 1020.3 hPa | - | - | - | - |
| 1777387825 | 20° C | 29% | 1020.3 hPa | - | - | - | - |
| 1777387524 | 20.56° C | 29% | 1020.4 hPa | - | - | - | - |
| 1777387223 | 20.56° C | 29% | 1020.4 hPa | - | - | - | - |
| 1777386922 | 21.11° C | 29% | 1020.4 hPa | - | - | - | - |
| 1777386621 | 21.11° C | 29% | 1020.4 hPa | - | - | - | - |
| 1777386320 | 20.56° C | 29% | 1020.5 hPa | - | - | - | - |
| 1777386018 | 21.11° C | 28% | 1020.6 hPa | - | - | - | - |
| 1777385717 | 21.67° C | 28% | 1020.5 hPa | - | - | - | - |
| 1777385416 | 22.22° C | 28% | 1020.6 hPa | - | - | - | - |
| 1777385114 | 22.78° C | 28% | 1020.5 hPa | - | - | - | - |
| 1777384813 | 23.33° C | 28% | 1020.7 hPa | - | - | - | - |
| 1777384512 | 22.78° C | 28% | 1020.6 hPa | - | - | - | - |
| 1777384210 | 22.78° C | 28% | 1020.6 hPa | - | - | - | - |
| 1777383909 | 22.78° C | 27% | 1020.6 hPa | - | - | - | - |
| 1777383608 | 22.78° C | 27% | 1020.6 hPa | - | - | - | - |
| 1777383306 | 22.78° C | 27% | 1020.7 hPa | - | - | - | - |
| 1777383005 | 23.33° C | 27% | 1020.7 hPa | - | - | - | - |
| 1777382703 | 23.33° C | 26% | 1020.8 hPa | - | - | - | - |
| 1777382402 | 22.78° C | 27% | 1020.8 hPa | - | - | - | - |
| 1777382100 | 22.22° C | 27% | 1020.9 hPa | - | - | - | - |
| 1777381799 | 22.78° C | 26% | 1020.7 hPa | - | - | - | - |
| 1777381498 | 22.22° C | 27% | 1021 hPa | - | - | - | - |
| 1777381196 | 22.22° C | 27% | 1021.1 hPa | - | - | - | - |
* Rain since midnight (hover to see other rain measurements)
** Current wind speed in m/s (hover to see current wind gust speed)